This is the latest recevied weather packets stored in our database for station/object K5OBH. If no packets are shown the sender has not sent any weather packets the latest 1 day(s).
| Time | Temp. | Humidity | Pressure | Rain* | Wind** | Luminosity | Snow |
|---|---|---|---|---|---|---|---|
| 1777998161 | 15° C | 85% | 1005.2 hPa | 0 mm | 3.58 m/s, 337° | 160 W/m² | - |
| 1777997857 | 15° C | 85% | 1005.2 hPa | 0 mm | 1.79 m/s, 356° | 153 W/m² | - |
| 1777997555 | 15° C | 87% | 1005 hPa | 0 mm | 1.34 m/s, 357° | 129 W/m² | - |
| 1777997252 | 15.56° C | 87% | 1004.7 hPa | 0 mm | 3.58 m/s, 356° | 106 W/m² | - |
| 1777996950 | 15° C | 87% | 1004.8 hPa | 0 mm | 2.24 m/s, 352° | 105 W/m² | - |
| 1777996646 | 15.56° C | 87% | 1004.6 hPa | 0 mm | 4.47 m/s, 222° | 88 W/m² | - |
| 1777996343 | 15.56° C | 87% | 1004.3 hPa | 0 mm | 4.92 m/s, 329° | 117 W/m² | - |
| 1777996039 | 15.56° C | 87% | 1003.9 hPa | 0 mm | 5.81 m/s, 350° | 96 W/m² | - |
| 1777995735 | 15.56° C | 87% | 1003.8 hPa | 0 mm | 4.02 m/s, 337° | 90 W/m² | - |
| 1777995432 | 15.56° C | 87% | 1003.7 hPa | 0 mm | 3.13 m/s, 26° | 81 W/m² | - |
| 1777995129 | 16.11° C | 87% | 1003.3 hPa | 0 mm | 4.02 m/s, 43° | 65 W/m² | - |
| 1777994826 | 16.11° C | 87% | 1003.7 hPa | 0 mm | 2.24 m/s, 358° | 67 W/m² | - |
| 1777994522 | 16.67° C | 87% | 1003.2 hPa | 0 mm | 2.24 m/s, 357° | 63 W/m² | - |
| 1777994217 | 16.67° C | 87% | 1003.2 hPa | 0 mm | 2.68 m/s, 331° | 40 W/m² | - |
| 1777993915 | 17.22° C | 86% | 1003.1 hPa | 0 mm | 2.24 m/s, 6° | 41 W/m² | - |
| 1777993611 | 20.56° C | 87% | 1003.1 hPa | 0 mm | 3.13 m/s, 327° | 52 W/m² | - |
| 1777993308 | 20.56° C | 87% | 1002.6 hPa | 0 mm | 0.89 m/s, 359° | 174 W/m² | - |
| 1777993003 | 20.56° C | 87% | 1002.6 hPa | 0 mm | 2.68 m/s, 316° | 188 W/m² | - |
| 1777992702 | 20.56° C | 87% | 1002.3 hPa | 0 mm | 2.68 m/s, 321° | 142 W/m² | - |
| 1777992399 | 21.67° C | 84% | 1002.2 hPa | 0 mm | 1.34 m/s, 332° | 99 W/m² | - |
| 1777992097 | 21.67° C | 81% | 1002.2 hPa | 0 mm | 0.45 m/s, 351° | 152 W/m² | - |
| 1777991794 | 21.67° C | 80% | 1002 hPa | 0 mm | 0 m/s | 138 W/m² | - |
| 1777991491 | 21.67° C | 80% | 1001.7 hPa | 0 mm | 0 m/s | 131 W/m² | - |
| 1777991188 | 21.11° C | 82% | 1001.9 hPa | 0 mm | 0 m/s | 129 W/m² | - |
| 1777990886 | 21.11° C | 81% | 1001.8 hPa | 0 mm | 0.45 m/s, 18° | 115 W/m² | - |
* Rain latest hour (hover to see other rain measurements)
** Current wind speed in m/s (hover to see current wind gust speed)